Time,TemperatureF,DewpointF,PressureIn,WindDirection,WindDirectionDegrees,WindSpeedMPH,WindSpeedGustMPH,Humidity,HourlyPrecipIn,Conditions,Clouds,dailyrainin,SoftwareType,DateUTC
2013-10-07 00:00:00,56.2,50.5,29.91,South,184,0.0,11.0,81,0.03,,---,0.03,VWS V14.01,2013-10-07 07:00:00,
2013-10-07 00:01:00,56.2,50.5,29.91,South,184,0.0,11.0,81,0.03,,---,0.03,VWS V14.01,2013-10-07 07:01:00,
2013-10-07 00:06:00,55.9,50.5,29.91,SW,219,0.0,10.0,82,0.03,,---,0.00,VWS V14.01,2013-10-07 07:06:00,
2013-10-07 00:11:00,55.7,51.0,29.91,South,188,4.0,10.0,84,0.04,,---,0.01,VWS V14.01,2013-10-07 07:11:00,
2013-10-07 00:15:00,55.3,50.9,29.91,SSW,211,3.0,14.0,85,0.06,,---,0.03,VWS V14.01,2013-10-07 07:15:00,
2013-10-07 00:16:00,55.4,51.0,29.91,SW,218,8.0,14.0,85,0.05,,---,0.02,VWS V14.01,2013-10-07 07:16:00,
2013-10-07 00:21:00,55.0,50.9,29.91,SSW,199,3.0,17.0,86,0.07,,---,0.04,VWS V14.01,2013-10-07 07:21:00,
2013-10-07 00:26:00,54.9,51.1,29.91,South,173,5.0,17.0,87,0.07,,---,0.04,VWS V14.01,2013-10-07 07:26:00,
2013-10-07 00:31:00,54.8,51.3,29.91,South,184,0.0,17.0,88,0.08,,---,0.05,VWS V14.01,2013-10-07 07:31:00,
2013-10-07 00:36:00,54.7,51.2,29.91,SSE,151,0.0,16.0,88,0.08,,---,0.05,VWS V14.01,2013-10-07 07:36:00,
2013-10-07 00:41:00,54.5,51.3,29.91,SSE,150,4.0,16.0,89,0.08,,---,0.05,VWS V14.01,2013-10-07 07:41:00,
2013-10-07 00:45:00,54.4,51.2,29.91,North,9,0.0,16.0,89,0.09,,---,0.06,VWS V14.01,2013-10-07 07:45:00,
2013-10-07 00:46:00,54.4,51.2,29.91,SSE,168,0.0,16.0,89,0.09,,---,0.06,VWS V14.01,2013-10-07 07:46:00,
2013-10-07 00:51:00,54.4,51.2,29.91,SSE,165,9.0,12.0,89,0.09,,---,0.07,VWS V14.01,2013-10-07 07:51:00,
2013-10-07 00:56:00,54.2,51.0,29.91,South,172,5.0,12.0,89,0.09,,---,0.07,VWS V14.01,2013-10-07 07:56:00,
2013-10-07 01:00:00,54.2,51.3,29.91,SSW,192,7.0,12.0,90,0.09,,---,0.07,VWS V14.01,2013-10-07 08:00:00,
2013-10-07 01:01:00,54.2,51.3,29.91,SSE,165,9.0,12.0,90,0.09,,---,0.07,VWS V14.01,2013-10-07 08:01:00,
2013-10-07 01:06:00,54.2,51.3,29.92,SSE,150,0.0,9.0,90,0.07,,---,0.07,VWS V14.01,2013-10-07 08:06:00,
2013-10-07 01:11:00,54.1,51.2,29.92,SSE,155,1.0,11.0,90,0.07,,---,0.07,VWS V14.01,2013-10-07 08:11:00,
2013-10-07 01:15:00,54.1,51.2,29.92,SSE,168,6.0,13.0,90,0.07,,---,0.07,VWS V14.01,2013-10-07 08:15:00,
2013-10-07 01:16:00,54.1,51.2,29.92,South,178,6.0,13.0,90,0.07,,---,0.07,VWS V14.01,2013-10-07 08:16:00,
2013-10-07 01:21:00,54.1,51.2,29.92,South,189,6.0,10.0,90,0.04,,---,0.07,VWS V14.01,2013-10-07 08:21:00,
2013-10-07 01:26:00,54.1,51.2,29.92,South,174,4.0,15.0,90,0.04,,---,0.07,VWS V14.01,2013-10-07 08:26:00,
2013-10-07 01:30:00,54.2,51.3,29.92,South,170,5.0,15.0,90,0.04,,---,0.07,VWS V14.01,2013-10-07 08:30:00,
2013-10-07 01:31:00,54.2,51.3,29.92,SSE,150,7.0,15.0,90,0.04,,---,0.07,VWS V14.01,2013-10-07 08:31:00,
2013-10-07 01:36:00,54.2,51.3,29.92,SSW,194,3.0,14.0,90,0.02,,---,0.07,VWS V14.01,2013-10-07 08:36:00,
2013-10-07 01:41:00,54.3,51.4,29.92,SSE,163,8.0,16.0,90,0.02,,---,0.07,VWS V14.01,2013-10-07 08:41:00,
2013-10-07 01:45:00,54.3,51.1,29.92,South,185,0.0,16.0,89,0.02,,---,0.07,VWS V14.01,2013-10-07 08:45:00,
2013-10-07 01:46:00,54.3,51.1,29.92,SE,144,6.0,16.0,89,0.02,,---,0.07,VWS V14.01,2013-10-07 08:46:00,
2013-10-07 01:51:00,54.2,51.0,29.92,South,186,0.0,13.0,89,0.01,,---,0.07,VWS V14.01,2013-10-07 08:51:00,
2013-10-07 01:56:00,54.3,51.4,29.91,South,171,10.0,14.0,90,0.01,,---,0.07,VWS V14.01,2013-10-07 08:56:00,
2013-10-07 02:00:00,54.3,51.4,29.91,SSE,151,4.0,14.0,90,0.01,,---,0.07,VWS V14.01,2013-10-07 09:00:00,
2013-10-07 02:01:00,54.3,51.4,29.91,South,171,4.0,14.0,90,0.01,,---,0.07,VWS V14.01,2013-10-07 09:01:00,
2013-10-07 02:06:00,54.2,51.3,29.91,SSE,163,5.0,14.0,90,0.00,,---,0.07,VWS V14.01,2013-10-07 09:06:00,
2013-10-07 02:11:00,54.1,51.2,29.91,SSE,153,4.0,18.0,90,0.00,,---,0.07,VWS V14.01,2013-10-07 09:11:00,
2013-10-07 02:15:00,54.1,51.2,29.91,South,181,4.0,21.0,90,0.00,,---,0.07,VWS V14.01,2013-10-07 09:15:00,
2013-10-07 02:16:00,54.1,51.2,29.91,SSE,165,1.0,21.0,90,0.00,,---,0.07,VWS V14.01,2013-10-07 09:16:00,
2013-10-07 02:21:00,54.2,51.3,29.91,SE,142,6.0,9.0,90,0.00,,---,0.07,VWS V14.01,2013-10-07 09:21:00,
2013-10-07 02:26:00,54.1,51.2,29.91,South,171,12.0,15.0,90,0.00,,---,0.07,VWS V14.01,2013-10-07 09:26:00,
2013-10-07 02:30:00,54.2,51.3,29.91,South,178,6.0,17.0,90,0.00,,---,0.07,VWS V14.01,2013-10-07 09:30:00,
2013-10-07 02:31:00,54.1,51.2,29.91,South,177,9.0,17.0,90,0.00,,---,0.07,VWS V14.01,2013-10-07 09:31:00,
2013-10-07 02:36:00,54.2,51.3,29.91,SE,143,11.0,12.0,90,0.00,,---,0.07,VWS V14.01,2013-10-07 09:36:00,
2013-10-07 02:41:00,54.4,51.2,29.91,SSE,148,5.0,13.0,89,0.00,,---,0.07,VWS V14.01,2013-10-07 09:41:00,
2013-10-07 02:45:00,54.4,51.2,29.91,SSE,153,6.0,15.0,89,0.00,,---,0.07,VWS V14.01,2013-10-07 09:45:00,
2013-10-07 02:46:00,54.4,51.2,29.91,South,171,7.0,15.0,89,0.00,,---,0.07,VWS V14.01,2013-10-07 09:46:00,
2013-10-07 02:51:00,54.5,51.3,29.91,ESE,115,0.0,21.0,89,0.00,,---,0.07,VWS V14.01,2013-10-07 09:51:00,
2013-10-07 02:56:00,54.4,51.2,29.91,South,179,1.0,21.0,89,0.00,,---,0.07,VWS V14.01,2013-10-07 09:56:00,
2013-10-07 03:00:00,54.4,51.2,29.91,SSE,155,5.0,21.0,89,0.00,,---,0.07,VWS V14.01,2013-10-07 10:00:00,
2013-10-07 03:01:00,54.4,51.2,29.91,SSE,151,11.0,21.0,89,0.00,,---,0.07,VWS V14.01,2013-10-07 10:01:00,
2013-10-07 03:05:00,54.4,51.2,29.91,SSW,202,6.0,15.0,89,0.00,,---,0.07,VWS V14.01,2013-10-07 10:05:00,
2013-10-07 03:10:00,54.5,51.3,29.91,West,263,4.0,15.0,89,0.00,,---,0.07,VWS V14.01,2013-10-07 10:10:00,
2013-10-07 03:15:00,54.5,51.3,29.91,SE,145,6.0,15.0,89,0.00,,---,0.07,VWS V14.01,2013-10-07 10:15:00,
2013-10-07 03:20:00,54.5,51.3,29.91,South,175,6.0,15.0,89,0.00,,---,0.07,VWS V14.01,2013-10-07 10:20:00,
2013-10-07 03:25:00,54.5,51.3,29.91,SSE,157,6.0,15.0,89,0.00,,---,0.07,VWS V14.01,2013-10-07 10:25:00,
2013-10-07 03:30:00,54.5,51.3,29.91,SSE,152,5.0,15.0,89,0.00,,---,0.07,VWS V14.01,2013-10-07 10:30:00,
2013-10-07 03:35:00,54.4,51.2,29.91,SE,138,5.0,12.0,89,0.00,,---,0.07,VWS V14.01,2013-10-07 10:35:00,
2013-10-07 03:40:00,54.5,51.3,29.91,SSW,194,1.0,12.0,89,0.00,,---,0.07,VWS V14.01,2013-10-07 10:40:00,
2013-10-07 03:45:00,54.6,51.1,29.91,South,186,8.0,12.0,88,0.00,,---,0.07,VWS V14.01,2013-10-07 10:45:00,
2013-10-07 03:50:00,54.7,50.9,29.91,SW,217,0.0,18.0,87,0.00,,---,0.07,VWS V14.01,2013-10-07 10:50:00,
2013-10-07 03:55:00,54.7,50.9,29.91,SSE,153,2.0,18.0,87,0.00,,---,0.07,VWS V14.01,2013-10-07 10:55:00,
2013-10-07 04:00:00,54.7,50.9,29.91,SSW,192,4.0,18.0,87,0.00,,---,0.07,VWS V14.01,2013-10-07 11:00:00,
2013-10-07 04:05:00,54.7,50.9,29.91,WSW,256,0.0,14.0,87,0.00,,---,0.07,VWS V14.01,2013-10-07 11:05:00,
2013-10-07 04:10:00,54.6,51.1,29.91,SSE,158,7.0,14.0,88,0.00,,---,0.07,VWS V14.01,2013-10-07 11:10:00,
2013-10-07 04:15:00,54.6,51.1,29.91,South,172,13.0,14.0,88,0.00,,---,0.07,VWS V14.01,2013-10-07 11:15:00,
2013-10-07 04:20:00,54.6,51.1,29.91,SSE,148,5.0,12.0,88,0.00,,---,0.07,VWS V14.01,2013-10-07 11:20:00,
2013-10-07 04:25:00,54.6,50.8,29.91,SSW,195,0.0,12.0,87,0.00,,---,0.07,VWS V14.01,2013-10-07 11:25:00,
2013-10-07 04:30:00,54.7,50.9,29.91,SSE,160,0.0,15.0,87,0.00,,---,0.07,VWS V14.01,2013-10-07 11:30:00,
2013-10-07 04:35:00,54.7,50.9,29.91,SSE,156,8.0,17.0,87,0.00,,---,0.07,VWS V14.01,2013-10-07 11:35:00,
2013-10-07 04:40:00,54.6,50.8,29.91,SSE,158,4.0,17.0,87,0.00,,---,0.07,VWS V14.01,2013-10-07 11:40:00,
2013-10-07 04:45:00,54.7,50.9,29.91,SSE,153,1.0,17.0,87,0.00,,---,0.07,VWS V14.01,2013-10-07 11:45:00,
2013-10-07 04:50:00,54.7,50.9,29.91,SSE,152,0.0,7.0,87,0.00,,---,0.07,VWS V14.01,2013-10-07 11:50:00,
2013-10-07 04:55:00,54.8,51.0,29.91,SSE,152,0.0,13.0,87,0.00,,---,0.07,VWS V14.01,2013-10-07 11:55:00,
2013-10-07 05:00:00,54.8,51.0,29.92,SSE,168,4.0,13.0,87,0.00,,---,0.07,VWS V14.01,2013-10-07 12:00:00,
2013-10-07 05:05:00,54.8,51.0,29.91,SSE,155,10.0,12.0,87,0.00,,---,0.07,VWS V14.01,2013-10-07 12:05:00,
2013-10-07 05:10:00,54.7,50.9,29.91,SE,141,5.0,12.0,87,0.00,,---,0.07,VWS V14.01,2013-10-07 12:10:00,
2013-10-07 05:15:00,54.6,50.8,29.91,SSE,165,0.0,12.0,87,0.00,,---,0.07,VWS V14.01,2013-10-07 12:15:00,
2013-10-07 05:20:00,54.6,50.8,29.91,SSE,151,0.0,6.0,87,0.00,,---,0.07,VWS V14.01,2013-10-07 12:20:00,
2013-10-07 05:25:00,54.7,51.2,29.91,SSE,150,0.0,6.0,88,0.00,,---,0.07,VWS V14.01,2013-10-07 12:25:00,
2013-10-07 05:30:00,54.6,50.8,29.91,SSE,164,4.0,11.0,87,0.00,,---,0.07,VWS V14.01,2013-10-07 12:30:00,
2013-10-07 05:35:00,54.6,50.8,29.91,WSW,253,1.0,9.0,87,0.00,,---,0.07,VWS V14.01,2013-10-07 12:35:00,
2013-10-07 05:40:00,54.6,50.8,29.91,SSE,156,0.0,9.0,87,0.00,,---,0.07,VWS V14.01,2013-10-07 12:40:00,
2013-10-07 05:45:00,54.5,51.0,29.91,SSE,148,7.0,9.0,88,0.00,,---,0.07,VWS V14.01,2013-10-07 12:45:00,
2013-10-07 05:50:00,54.5,51.0,29.91,SSE,148,0.0,5.0,88,0.00,,---,0.07,VWS V14.01,2013-10-07 12:50:00,
2013-10-07 05:55:00,54.4,50.9,29.91,SSE,153,0.0,10.0,88,0.00,,---,0.07,VWS V14.01,2013-10-07 12:55:00,
2013-10-07 06:00:00,54.3,50.8,29.91,SSE,148,8.0,14.0,88,0.00,,---,0.07,VWS V14.01,2013-10-07 13:00:00,
2013-10-07 06:05:00,54.3,50.8,29.91,SW,225,0.0,6.0,88,0.00,,---,0.07,VWS V14.01,2013-10-07 13:05:00,
2013-10-07 06:10:00,54.3,50.8,29.91,SSW,209,0.0,6.0,88,0.00,,---,0.07,VWS V14.01,2013-10-07 13:10:00,
2013-10-07 06:15:00,54.4,50.9,29.92,WSW,240,0.0,6.0,88,0.00,,---,0.07,VWS V14.01,2013-10-07 13:15:00,
2013-10-07 06:20:00,54.4,50.9,29.92,SSW,202,0.0,3.0,88,0.00,,---,0.07,VWS V14.01,2013-10-07 13:20:00,
2013-10-07 06:25:00,54.4,50.9,29.92,SSE,159,2.0,9.0,88,0.00,,---,0.07,VWS V14.01,2013-10-07 13:25:00,
2013-10-07 06:30:00,54.5,50.7,29.92,SSE,159,1.0,9.0,87,0.00,,---,0.07,VWS V14.01,2013-10-07 13:30:00,
2013-10-07 06:35:00,54.5,50.7,29.92,SSE,158,2.0,16.0,87,0.00,,---,0.07,VWS V14.01,2013-10-07 13:35:00,
2013-10-07 06:40:00,54.5,50.4,29.92,SSE,159,0.0,16.0,86,0.00,,---,0.07,VWS V14.01,2013-10-07 13:40:00,
2013-10-07 06:45:00,54.5,50.4,29.92,South,171,0.0,16.0,86,0.00,,---,0.07,VWS V14.01,2013-10-07 13:45:00,
2013-10-07 06:50:00,54.6,50.5,29.92,SSW,194,1.0,12.0,86,0.00,,---,0.07,VWS V14.01,2013-10-07 13:50:00,
2013-10-07 06:55:00,54.7,50.6,29.92,SSE,155,0.0,12.0,86,0.00,,---,0.07,VWS V14.01,2013-10-07 13:55:00,
2013-10-07 07:00:00,54.7,50.3,29.92,South,178,1.0,13.0,85,0.00,,---,0.07,VWS V14.01,2013-10-07 14:00:00,
2013-10-07 07:05:00,54.6,50.2,29.92,South,174,2.0,13.0,85,0.00,,---,0.07,VWS V14.01,2013-10-07 14:05:00,
2013-10-07 07:10:00,54.5,50.1,29.92,West,268,0.0,20.0,85,0.00,,---,0.07,VWS V14.01,2013-10-07 14:10:00,
2013-10-07 07:15:00,54.5,50.1,29.92,SSE,161,6.0,20.0,85,0.00,,---,0.07,VWS V14.01,2013-10-07 14:15:00,
2013-10-07 07:20:00,54.4,50.0,29.92,South,178,9.0,14.0,85,0.00,,---,0.07,VWS V14.01,2013-10-07 14:20:00,
2013-10-07 07:25:00,54.5,50.1,29.91,SSE,167,6.0,15.0,85,0.00,,---,0.07,VWS V14.01,2013-10-07 14:25:00,
2013-10-07 07:30:00,54.4,50.0,29.91,South,175,4.0,15.0,85,0.00,,---,0.07,VWS V14.01,2013-10-07 14:30:00,
2013-10-07 07:35:00,54.4,50.0,29.92,SE,137,7.0,15.0,85,0.00,,---,0.07,VWS V14.01,2013-10-07 14:35:00,
2013-10-07 07:40:00,54.3,49.9,29.92,SSE,154,5.0,15.0,85,0.00,,---,0.07,VWS V14.01,2013-10-07 14:40:00,
2013-10-07 07:45:00,54.4,50.0,29.91,SE,141,4.0,15.0,85,0.00,,---,0.07,VWS V14.01,2013-10-07 14:45:00,
2013-10-07 07:50:00,54.4,50.3,29.92,SE,146,8.0,10.0,86,0.00,,---,0.07,VWS V14.01,2013-10-07 14:50:00,
2013-10-07 07:55:00,54.5,50.1,29.92,South,188,0.0,10.0,85,0.00,,---,0.07,VWS V14.01,2013-10-07 14:55:00,
2013-10-07 08:00:00,54.6,50.2,29.92,SSE,148,11.0,11.0,85,0.00,,---,0.07,VWS V14.01,2013-10-07 15:00:00,
2013-10-07 08:05:00,54.6,50.2,29.92,South,186,0.0,6.0,85,0.00,,---,0.07,VWS V14.01,2013-10-07 15:05:00,
2013-10-07 08:10:00,54.6,50.2,29.92,SSE,157,6.0,11.0,85,0.00,,---,0.07,VWS V14.01,2013-10-07 15:10:00,
2013-10-07 08:15:00,54.7,50.3,29.92,SSE,149,4.0,11.0,85,0.00,,---,0.07,VWS V14.01,2013-10-07 15:15:00,
2013-10-07 08:20:00,54.7,50.3,29.92,SW,215,6.0,6.0,85,0.00,,---,0.07,VWS V14.01,2013-10-07 15:20:00,
2013-10-07 08:25:00,54.7,50.0,29.92,South,181,9.0,12.0,84,0.00,,---,0.07,VWS V14.01,2013-10-07 15:25:00,
2013-10-07 08:30:00,54.8,50.1,29.92,SSE,154,6.0,12.0,84,0.00,,---,0.07,VWS V14.01,2013-10-07 15:30:00,
2013-10-07 08:35:00,54.8,50.1,29.92,SSE,150,13.0,13.0,84,0.00,,---,0.07,VWS V14.01,2013-10-07 15:35:00,
2013-10-07 08:40:00,54.8,49.7,29.93,SSW,194,4.0,14.0,83,0.00,,---,0.07,VWS V14.01,2013-10-07 15:40:00,
2013-10-07 08:45:00,54.7,49.7,29.93,WNW,288,2.0,15.0,83,0.00,,---,0.07,VWS V14.01,2013-10-07 15:45:00,
2013-10-07 08:50:00,54.8,50.1,29.93,SSE,161,7.0,10.0,84,0.00,,---,0.07,VWS V14.01,2013-10-07 15:50:00,
2013-10-07 08:55:00,54.8,50.1,29.93,SSE,148,6.0,10.0,84,0.00,,---,0.07,VWS V14.01,2013-10-07 15:55:00,
2013-10-07 09:00:00,54.8,50.1,29.93,South,173,6.0,17.0,84,0.00,,---,0.07,VWS V14.01,2013-10-07 16:00:00,
2013-10-07 09:05:00,54.8,49.7,29.93,SSE,166,7.0,17.0,83,0.00,,---,0.07,VWS V14.01,2013-10-07 16:05:00,
2013-10-07 09:10:00,54.8,49.7,29.93,SSE,159,4.0,17.0,83,0.00,,---,0.07,VWS V14.01,2013-10-07 16:10:00,
2013-10-07 09:15:00,54.9,49.8,29.93,SSW,195,5.0,17.0,83,0.00,,---,0.07,VWS V14.01,2013-10-07 16:15:00,
2013-10-07 09:20:00,54.8,50.1,29.93,SSE,165,2.0,15.0,84,0.00,,---,0.07,VWS V14.01,2013-10-07 16:20:00,
2013-10-07 09:25:00,54.8,50.1,29.93,SSW,195,0.0,15.0,84,0.00,,---,0.07,VWS V14.01,2013-10-07 16:25:00,
2013-10-07 09:30:00,54.6,49.9,29.93,SSE,164,5.0,17.0,84,0.01,,---,0.08,VWS V14.01,2013-10-07 16:30:00,
2013-10-07 09:35:00,54.5,50.1,29.93,South,189,6.0,12.0,85,0.01,,---,0.08,VWS V14.01,2013-10-07 16:35:00,
2013-10-07 09:40:00,54.3,50.2,29.94,SE,142,8.0,21.0,86,0.01,,---,0.08,VWS V14.01,2013-10-07 16:40:00,
2013-10-07 09:45:00,54.2,50.1,29.94,SSE,156,9.0,22.0,86,0.01,,---,0.08,VWS V14.01,2013-10-07 16:45:00,
2013-10-07 09:50:00,54.2,50.1,29.94,WSW,237,2.0,14.0,86,0.01,,---,0.08,VWS V14.01,2013-10-07 16:50:00,
2013-10-07 09:55:00,54.2,50.1,29.94,SSE,167,6.0,17.0,86,0.01,,---,0.08,VWS V14.01,2013-10-07 16:55:00,
2013-10-07 10:00:00,54.3,49.9,29.94,SSE,147,9.0,17.0,85,0.01,,---,0.08,VWS V14.01,2013-10-07 17:00:00,
2013-10-07 10:05:00,54.4,50.0,29.94,South,185,2.0,14.0,85,0.01,,---,0.08,VWS V14.01,2013-10-07 17:05:00,
2013-10-07 10:10:00,54.5,50.1,29.94,SSE,157,12.0,16.0,85,0.01,,---,0.08,VWS V14.01,2013-10-07 17:10:00,
2013-10-07 10:15:00,54.6,50.2,29.94,South,173,5.0,16.0,85,0.01,,---,0.08,VWS V14.01,2013-10-07 17:15:00,
2013-10-07 10:20:00,54.7,50.0,29.95,SSE,167,8.0,11.0,84,0.01,,---,0.08,VWS V14.01,2013-10-07 17:20:00,
2013-10-07 10:25:00,54.7,50.0,29.95,SSE,166,2.0,15.0,84,0.01,,---,0.08,VWS V14.01,2013-10-07 17:25:00,
2013-10-07 10:30:00,54.6,49.9,29.95,SSW,201,1.0,15.0,84,0.01,,---,0.08,VWS V14.01,2013-10-07 17:30:00,
2013-10-07 10:35:00,54.5,49.8,29.96,SSE,156,8.0,12.0,84,0.00,,---,0.08,VWS V14.01,2013-10-07 17:35:00,
2013-10-07 10:40:00,54.4,49.7,29.95,ESE,108,2.0,17.0,84,0.00,,---,0.08,VWS V14.01,2013-10-07 17:40:00,
2013-10-07 10:45:00,54.4,50.0,29.96,South,180,8.0,20.0,85,0.00,,---,0.08,VWS V14.01,2013-10-07 17:45:00,
2013-10-07 10:50:00,54.4,49.7,29.96,SSW,193,5.0,18.0,84,0.00,,---,0.08,VWS V14.01,2013-10-07 17:50:00,
2013-10-07 10:55:00,54.4,49.7,29.96,SSW,192,5.0,18.0,84,0.00,,---,0.08,VWS V14.01,2013-10-07 17:55:00,
2013-10-07 11:00:00,54.5,49.8,29.96,SSE,161,10.0,18.0,84,0.00,,---,0.08,VWS V14.01,2013-10-07 18:00:00,
2013-10-07 11:05:00,54.4,49.7,29.96,SSE,161,9.0,13.0,84,0.00,,---,0.08,VWS V14.01,2013-10-07 18:05:00,
2013-10-07 11:10:00,54.3,49.9,29.96,South,176,5.0,14.0,85,0.00,,---,0.08,VWS V14.01,2013-10-07 18:10:00,
2013-10-07 11:15:00,54.3,49.9,29.96,South,184,9.0,14.0,85,0.00,,---,0.08,VWS V14.01,2013-10-07 18:15:00,
2013-10-07 11:20:00,54.4,50.0,29.96,South,184,6.0,14.0,85,0.00,,---,0.08,VWS V14.01,2013-10-07 18:20:00,
2013-10-07 11:25:00,54.5,50.1,29.97,WNW,294,4.0,14.0,85,0.00,,---,0.08,VWS V14.01,2013-10-07 18:25:00,
2013-10-07 11:30:00,54.7,50.0,29.97,SSW,199,0.0,19.0,84,0.00,,---,0.08,VWS V14.01,2013-10-07 18:30:00,
2013-10-07 11:35:00,54.8,49.7,29.97,SSW,202,6.0,20.0,83,0.00,,---,0.08,VWS V14.01,2013-10-07 18:35:00,
2013-10-07 11:40:00,54.8,49.4,29.97,South,188,6.0,20.0,82,0.00,,---,0.08,VWS V14.01,2013-10-07 18:40:00,
2013-10-07 11:45:00,54.8,49.7,29.97,SSE,152,1.0,20.0,83,0.00,,---,0.08,VWS V14.01,2013-10-07 18:45:00,
2013-10-07 11:50:00,54.8,49.4,29.98,SE,144,1.0,13.0,82,0.00,,---,0.08,VWS V14.01,2013-10-07 18:50:00,
2013-10-07 11:55:00,54.7,49.3,29.98,SSE,160,7.0,16.0,82,0.00,,---,0.08,VWS V14.01,2013-10-07 18:55:00,
2013-10-07 12:00:00,54.8,49.4,29.98,South,170,6.0,16.0,82,0.00,,---,0.08,VWS V14.01,2013-10-07 19:00:00,
2013-10-07 12:05:00,54.8,49.4,29.98,SSE,168,7.0,12.0,82,0.00,,---,0.08,VWS V14.01,2013-10-07 19:05:00,
2013-10-07 12:10:00,54.9,49.5,29.98,SSE,159,7.0,13.0,82,0.00,,---,0.08,VWS V14.01,2013-10-07 19:10:00,
2013-10-07 12:15:00,55.0,49.3,29.98,SSW,198,2.0,13.0,81,0.00,,---,0.08,VWS V14.01,2013-10-07 19:15:00,
2013-10-07 12:20:00,55.2,49.5,29.98,South,173,5.0,7.0,81,0.00,,---,0.08,VWS V14.01,2013-10-07 19:20:00,
2013-10-07 12:25:00,55.5,49.8,29.98,SSE,167,5.0,10.0,81,0.00,,---,0.08,VWS V14.01,2013-10-07 19:25:00,
2013-10-07 12:30:00,55.8,50.1,29.98,SSW,212,2.0,10.0,81,0.00,,---,0.08,VWS V14.01,2013-10-07 19:30:00,
2013-10-07 12:35:00,56.0,49.9,29.98,SSE,155,1.0,7.0,80,0.00,,---,0.08,VWS V14.01,2013-10-07 19:35:00,
2013-10-07 12:40:00,56.2,49.4,29.98,SSW,193,4.0,17.0,78,0.00,,---,0.08,VWS V14.01,2013-10-07 19:40:00,
2013-10-07 12:45:00,56.5,49.0,29.98,SSW,200,1.0,17.0,76,0.00,,---,0.08,VWS V14.01,2013-10-07 19:45:00,
2013-10-07 12:50:00,56.9,49.1,29.98,South,182,5.0,17.0,75,0.00,,---,0.08,VWS V14.01,2013-10-07 19:50:00,
2013-10-07 12:55:00,57.2,49.0,29.98,SSW,209,8.0,17.0,74,0.00,,---,0.08,VWS V14.01,2013-10-07 19:55:00,
2013-10-07 13:00:00,57.1,49.3,29.98,South,177,7.0,17.0,75,0.00,,---,0.08,VWS V14.01,2013-10-07 20:00:00,
2013-10-07 13:05:00,57.4,49.5,29.98,South,175,8.0,11.0,75,0.00,,---,0.08,VWS V14.01,2013-10-07 20:05:00,
2013-10-07 13:10:00,57.4,49.5,29.98,ESE,113,1.0,13.0,75,0.00,,---,0.08,VWS V14.01,2013-10-07 20:10:00,
2013-10-07 13:15:00,57.5,49.7,29.97,South,174,4.0,13.0,75,0.00,,---,0.08,VWS V14.01,2013-10-07 20:15:00,
2013-10-07 13:20:00,58.0,49.4,29.98,South,187,2.0,12.0,73,0.00,,---,0.08,VWS V14.01,2013-10-07 20:20:00,
2013-10-07 13:25:00,58.1,48.0,29.98,South,183,5.0,15.0,69,0.00,,---,0.08,VWS V14.01,2013-10-07 20:25:00,
2013-10-07 13:30:00,57.9,47.8,29.97,SE,137,6.0,16.0,69,0.00,,---,0.08,VWS V14.01,2013-10-07 20:30:00,
2013-10-07 13:35:00,57.8,47.3,29.97,South,188,5.0,18.0,68,0.00,,---,0.08,VWS V14.01,2013-10-07 20:35:00,
2013-10-07 13:40:00,58.7,48.2,29.97,SSW,211,5.0,18.0,68,0.00,,---,0.08,VWS V14.01,2013-10-07 20:40:00,
2013-10-07 13:45:00,57.9,46.6,29.97,SSE,167,11.0,18.0,66,0.00,,---,0.08,VWS V14.01,2013-10-07 20:45:00,
2013-10-07 13:50:00,57.9,47.8,29.97,SSW,198,7.0,11.0,69,0.00,,---,0.08,VWS V14.01,2013-10-07 20:50:00,
2013-10-07 13:55:00,58.0,47.9,29.97,South,180,10.0,12.0,69,0.00,,---,0.08,VWS V14.01,2013-10-07 20:55:00,
2013-10-07 14:00:00,58.1,47.6,29.97,South,170,11.0,16.0,68,0.00,,---,0.08,VWS V14.01,2013-10-07 21:00:00,
2013-10-07 14:05:00,57.9,47.8,29.97,SSW,207,9.0,15.0,69,0.00,,---,0.08,VWS V14.01,2013-10-07 21:05:00,
2013-10-07 14:10:00,58.1,47.2,29.97,WSW,240,5.0,17.0,67,0.00,,---,0.08,VWS V14.01,2013-10-07 21:10:00,
2013-10-07 14:15:00,58.1,47.6,29.97,SSE,167,13.0,17.0,68,0.00,,---,0.08,VWS V14.01,2013-10-07 21:15:00,
2013-10-07 14:20:00,58.0,47.9,29.97,SSE,155,17.0,19.0,69,0.00,,---,0.08,VWS V14.01,2013-10-07 21:20:00,
2013-10-07 14:25:00,58.0,47.9,29.97,South,183,4.0,19.0,69,0.00,,---,0.08,VWS V14.01,2013-10-07 21:25:00,
2013-10-07 14:30:00,58.6,48.5,29.98,SW,217,6.0,19.0,69,0.00,,---,0.08,VWS V14.01,2013-10-07 21:30:00,
2013-10-07 14:35:00,58.7,48.2,29.97,South,172,5.0,13.0,68,0.00,,---,0.08,VWS V14.01,2013-10-07 21:35:00,
2013-10-07 14:40:00,58.8,48.3,29.98,SSE,167,15.0,23.0,68,0.00,,---,0.08,VWS V14.01,2013-10-07 21:40:00,
2013-10-07 14:45:00,58.7,48.2,29.97,South,178,11.0,23.0,68,0.00,,---,0.08,VWS V14.01,2013-10-07 21:45:00,
2013-10-07 14:50:00,58.7,48.2,29.97,SSE,167,14.0,22.0,68,0.00,,---,0.08,VWS V14.01,2013-10-07 21:50:00,
2013-10-07 14:55:00,58.7,48.2,29.97,SSW,207,12.0,22.0,68,0.00,,---,0.08,VWS V14.01,2013-10-07 21:55:00,
2013-10-07 15:00:00,58.6,48.5,29.97,SE,144,14.0,22.0,69,0.00,,---,0.08,VWS V14.01,2013-10-07 22:00:00,
2013-10-07 15:05:00,58.5,48.0,29.97,South,179,8.0,18.0,68,0.00,,---,0.08,VWS V14.01,2013-10-07 22:05:00,
2013-10-07 15:10:00,59.0,47.7,29.97,SSW,192,8.0,22.0,66,0.00,,---,0.08,VWS V14.01,2013-10-07 22:10:00,
2013-10-07 15:15:00,58.9,47.2,29.97,SSE,166,9.0,22.0,65,0.00,,---,0.08,VWS V14.01,2013-10-07 22:15:00,
2013-10-07 15:20:00,58.7,47.0,29.97,West,271,5.0,14.0,65,0.00,,---,0.08,VWS V14.01,2013-10-07 22:20:00,
2013-10-07 15:25:00,58.5,47.2,29.98,SSE,162,8.0,15.0,66,0.00,,---,0.08,VWS V14.01,2013-10-07 22:25:00,
2013-10-07 15:30:00,58.2,46.9,29.97,SSE,161,2.0,18.0,66,0.00,,---,0.08,VWS V14.01,2013-10-07 22:30:00,
2013-10-07 15:35:00,58.1,46.4,29.98,SSW,194,3.0,18.0,65,0.00,,---,0.08,VWS V14.01,2013-10-07 22:35:00,
2013-10-07 15:40:00,58.0,45.5,29.98,SW,217,1.0,18.0,63,0.00,,---,0.08,VWS V14.01,2013-10-07 22:40:00,
2013-10-07 15:45:00,58.3,45.8,29.98,SSW,198,10.0,18.0,63,0.00,,---,0.08,VWS V14.01,2013-10-07 22:45:00,
2013-10-07 15:50:00,58.5,46.4,29.98,South,185,6.0,7.0,64,0.00,,---,0.08,VWS V14.01,2013-10-07 22:50:00,
2013-10-07 15:55:00,58.4,45.9,29.99,SSE,166,9.0,16.0,63,0.00,,---,0.08,VWS V14.01,2013-10-07 22:55:00,
2013-10-07 16:00:00,58.3,45.8,29.99,WNW,286,5.0,22.0,63,0.00,,---,0.08,VWS V14.01,2013-10-07 23:00:00,
2013-10-07 16:05:00,58.3,45.3,29.99,SSE,159,8.0,17.0,62,0.00,,---,0.08,VWS V14.01,2013-10-07 23:05:00,
2013-10-07 16:10:00,58.3,45.8,29.99,South,182,10.0,20.0,63,0.00,,---,0.08,VWS V14.01,2013-10-07 23:10:00,
2013-10-07 16:15:00,58.4,45.9,29.99,SSE,167,6.0,20.0,63,0.00,,---,0.08,VWS V14.01,2013-10-07 23:15:00,
2013-10-07 16:20:00,58.3,45.8,29.99,SSE,164,6.0,15.0,63,0.00,,---,0.08,VWS V14.01,2013-10-07 23:20:00,
2013-10-07 16:25:00,58.1,46.0,29.99,South,191,9.0,19.0,64,0.00,,---,0.08,VWS V14.01,2013-10-07 23:25:00,
2013-10-07 16:30:00,57.9,45.8,29.99,SW,229,9.0,19.0,64,0.00,,---,0.08,VWS V14.01,2013-10-07 23:30:00,
2013-10-07 16:35:00,58.0,46.3,29.99,SSE,160,7.0,15.0,65,0.00,,---,0.08,VWS V14.01,2013-10-07 23:35:00,
2013-10-07 16:40:00,57.6,46.3,29.99,South,178,8.0,16.0,66,0.00,,---,0.08,VWS V14.01,2013-10-07 23:40:00,
2013-10-07 16:45:00,57.5,46.6,29.99,South,171,16.0,20.0,67,0.00,,---,0.08,VWS V14.01,2013-10-07 23:45:00,
2013-10-07 16:50:00,57.2,46.8,30.00,SSE,164,5.0,13.0,68,0.00,,---,0.08,VWS V14.01,2013-10-07 23:50:00,
2013-10-07 16:55:00,57.4,47.3,30.00,South,190,7.0,14.0,69,0.00,,---,0.08,VWS V14.01,2013-10-07 23:55:00,
2013-10-07 17:00:00,57.5,47.4,29.99,South,169,12.0,15.0,69,0.00,,---,0.08,VWS V14.01,2013-10-08 00:00:00,
2013-10-07 17:05:00,57.7,47.6,29.99,South,169,6.0,12.0,69,0.00,,---,0.08,VWS V14.01,2013-10-08 00:05:00,
2013-10-07 17:10:00,57.6,47.5,29.99,SW,224,2.0,13.0,69,0.00,,---,0.08,VWS V14.01,2013-10-08 00:10:00,
2013-10-07 17:15:00,57.5,47.8,29.99,South,179,8.0,18.0,70,0.00,,---,0.08,VWS V14.01,2013-10-08 00:15:00,
2013-10-07 17:20:00,57.4,47.7,29.99,SW,226,4.0,15.0,70,0.00,,---,0.08,VWS V14.01,2013-10-08 00:20:00,
2013-10-07 17:25:00,57.5,47.4,30.00,South,188,8.0,17.0,69,0.00,,---,0.08,VWS V14.01,2013-10-08 00:25:00,
2013-10-07 17:30:00,57.4,47.3,30.00,South,190,6.0,17.0,69,0.00,,---,0.08,VWS V14.01,2013-10-08 00:30:00,
2013-10-07 17:35:00,57.2,46.8,30.00,South,173,9.0,16.0,68,0.00,,---,0.08,VWS V14.01,2013-10-08 00:35:00,
2013-10-07 17:40:00,56.9,46.5,29.99,SE,132,9.0,16.0,68,0.00,,---,0.08,VWS V14.01,2013-10-08 00:40:00,
2013-10-07 17:45:00,56.8,46.8,30.00,South,184,10.0,16.0,69,0.00,,---,0.08,VWS V14.01,2013-10-08 00:45:00,
2013-10-07 17:50:00,56.7,47.0,30.00,South,169,8.0,10.0,70,0.00,,---,0.08,VWS V14.01,2013-10-08 00:50:00,
2013-10-07 17:55:00,56.6,47.3,30.00,SE,146,7.0,17.0,71,0.00,,---,0.08,VWS V14.01,2013-10-08 00:55:00,
2013-10-07 18:00:00,56.6,46.9,30.00,SSW,194,4.0,17.0,70,0.00,,---,0.08,VWS V14.01,2013-10-08 01:00:00,
2013-10-07 18:05:00,56.4,47.1,30.00,South,173,7.0,15.0,71,0.00,,---,0.08,VWS V14.01,2013-10-08 01:05:00,
2013-10-07 18:10:00,56.3,47.4,30.00,South,170,11.0,18.0,72,0.00,,---,0.08,VWS V14.01,2013-10-08 01:10:00,
2013-10-07 18:15:00,56.1,46.8,30.00,SW,229,7.0,18.0,71,0.00,,---,0.08,VWS V14.01,2013-10-08 01:15:00,
2013-10-07 18:20:00,56.1,47.2,30.00,SE,143,1.0,12.0,72,0.00,,---,0.08,VWS V14.01,2013-10-08 01:20:00,
2013-10-07 18:25:00,56.1,47.2,30.00,SSW,207,6.0,16.0,72,0.00,,---,0.08,VWS V14.01,2013-10-08 01:25:00,
2013-10-07 18:30:00,55.9,47.4,30.00,SE,144,6.0,17.0,73,0.00,,---,0.08,VWS V14.01,2013-10-08 01:30:00,
2013-10-07 18:35:00,55.9,47.4,30.00,SE,146,4.0,8.0,73,0.00,,---,0.08,VWS V14.01,2013-10-08 01:35:00,
2013-10-07 18:40:00,55.9,47.4,30.00,SSW,198,4.0,10.0,73,0.00,,---,0.08,VWS V14.01,2013-10-08 01:40:00,
2013-10-07 18:45:00,55.7,47.5,30.00,South,190,2.0,14.0,74,0.00,,---,0.08,VWS V14.01,2013-10-08 01:45:00,
2013-10-07 18:50:00,55.6,47.5,30.00,South,170,12.0,12.0,74,0.00,,---,0.08,VWS V14.01,2013-10-08 01:50:00,
2013-10-07 18:55:00,55.5,47.7,30.00,SSE,167,6.0,21.0,75,0.00,,---,0.08,VWS V14.01,2013-10-08 01:55:00,
2013-10-07 19:00:00,55.4,47.6,30.00,South,171,9.0,21.0,75,0.00,,---,0.08,VWS V14.01,2013-10-08 02:00:00,
2013-10-07 19:05:00,55.4,47.6,30.00,South,187,7.0,10.0,75,0.00,,---,0.08,VWS V14.01,2013-10-08 02:05:00,
2013-10-07 19:10:00,55.4,48.0,30.00,SSW,200,5.0,15.0,76,0.00,,---,0.08,VWS V14.01,2013-10-08 02:10:00,
2013-10-07 19:15:00,55.4,48.0,30.00,SSE,151,9.0,15.0,76,0.00,,---,0.08,VWS V14.01,2013-10-08 02:15:00,
2013-10-07 19:20:00,55.4,48.0,30.00,SSE,157,16.0,16.0,76,0.00,,---,0.08,VWS V14.01,2013-10-08 02:20:00,
2013-10-07 19:25:00,55.2,47.8,30.01,SSE,163,5.0,16.0,76,0.00,,---,0.08,VWS V14.01,2013-10-08 02:25:00,
2013-10-07 19:30:00,55.2,47.8,30.00,South,173,10.0,18.0,76,0.00,,---,0.08,VWS V14.01,2013-10-08 02:30:00,
2013-10-07 19:35:00,55.0,47.6,30.01,SSE,163,2.0,14.0,76,0.00,,---,0.08,VWS V14.01,2013-10-08 02:35:00,
2013-10-07 19:40:00,55.1,47.7,30.00,South,186,7.0,14.0,76,0.00,,---,0.08,VWS V14.01,2013-10-08 02:40:00,
2013-10-07 19:45:00,55.1,47.7,30.00,SSW,200,0.0,14.0,76,0.00,,---,0.08,VWS V14.01,2013-10-08 02:45:00,
2013-10-07 19:50:00,55.0,47.6,30.01,South,169,9.0,15.0,76,0.00,,---,0.08,VWS V14.01,2013-10-08 02:50:00,
2013-10-07 19:55:00,55.0,47.6,30.01,South,169,1.0,15.0,76,0.00,,---,0.08,VWS V14.01,2013-10-08 02:55:00,
2013-10-07 20:00:00,55.0,47.2,30.01,South,180,3.0,15.0,75,0.00,,---,0.08,VWS V14.01,2013-10-08 03:00:00,
2013-10-07 20:05:00,54.9,47.5,30.01,SSE,155,7.0,14.0,76,0.00,,---,0.08,VWS V14.01,2013-10-08 03:05:00,
2013-10-07 20:10:00,54.9,47.5,30.01,South,173,9.0,14.0,76,0.00,,---,0.08,VWS V14.01,2013-10-08 03:10:00,
2013-10-07 20:15:00,54.8,47.7,30.01,South,184,5.0,15.0,77,0.00,,---,0.08,VWS V14.01,2013-10-08 03:15:00,
2013-10-07 20:20:00,54.8,47.7,30.01,SSE,161,6.0,13.0,77,0.00,,---,0.08,VWS V14.01,2013-10-08 03:20:00,
2013-10-07 20:25:00,54.6,48.2,30.01,WSW,239,3.0,13.0,79,0.00,,---,0.08,VWS V14.01,2013-10-08 03:25:00,
2013-10-07 20:30:00,54.4,48.4,30.01,SSE,159,5.0,13.0,80,0.00,,---,0.08,VWS V14.01,2013-10-08 03:30:00,
2013-10-07 20:35:00,54.4,48.7,30.01,SSW,192,5.0,12.0,81,0.00,,---,0.08,VWS V14.01,2013-10-08 03:35:00,
2013-10-07 20:40:00,54.4,48.7,30.01,SE,141,5.0,12.0,81,0.00,,---,0.08,VWS V14.01,2013-10-08 03:40:00,
2013-10-07 20:45:00,54.4,48.4,30.01,South,178,4.0,12.0,80,0.00,,---,0.08,VWS V14.01,2013-10-08 03:45:00,
2013-10-07 20:50:00,54.4,48.7,30.01,SSW,198,8.0,11.0,81,0.00,,---,0.08,VWS V14.01,2013-10-08 03:50:00,
2013-10-07 20:55:00,54.3,48.6,30.01,South,185,4.0,15.0,81,0.00,,---,0.08,VWS V14.01,2013-10-08 03:55:00,
2013-10-07 21:00:00,54.3,48.6,30.01,SSE,161,4.0,15.0,81,0.00,,---,0.08,VWS V14.01,2013-10-08 04:00:00,
2013-10-07 21:01:00,54.3,48.6,30.01,South,170,6.0,15.0,81,0.00,,---,0.08,VWS V14.01,2013-10-08 04:01:00,
2013-10-07 21:06:00,54.3,48.6,30.01,SSW,201,6.0,13.0,81,0.00,,---,0.08,VWS V14.01,2013-10-08 04:06:00,
2013-10-07 21:11:00,54.3,48.6,30.01,South,178,6.0,13.0,81,0.00,,---,0.08,VWS V14.01,2013-10-08 04:11:00,
2013-10-07 21:15:00,54.3,48.6,30.01,SSW,208,4.0,13.0,81,0.00,,---,0.08,VWS V14.01,2013-10-08 04:15:00,
2013-10-07 21:16:00,54.3,48.6,30.01,South,182,4.0,13.0,81,0.00,,---,0.08,VWS V14.01,2013-10-08 04:16:00,
2013-10-07 21:21:00,54.3,48.6,30.01,South,175,5.0,9.0,81,0.00,,---,0.08,VWS V14.01,2013-10-08 04:21:00,
2013-10-07 21:26:00,54.2,48.5,30.01,SSE,162,7.0,9.0,81,0.00,,---,0.08,VWS V14.01,2013-10-08 04:26:00,
2013-10-07 21:30:00,54.2,48.5,30.01,South,171,2.0,12.0,81,0.00,,---,0.08,VWS V14.01,2013-10-08 04:30:00,
2013-10-07 21:31:00,54.2,48.5,30.01,South,171,0.0,12.0,81,0.00,,---,0.08,VWS V14.01,2013-10-08 04:31:00,
2013-10-07 21:36:00,54.3,48.6,30.02,South,180,2.0,6.0,81,0.00,,---,0.08,VWS V14.01,2013-10-08 04:36:00,
2013-10-07 21:41:00,54.3,48.6,30.02,SSE,168,6.0,10.0,81,0.00,,---,0.08,VWS V14.01,2013-10-08 04:41:00,
2013-10-07 21:45:00,54.2,48.5,30.02,South,171,7.0,12.0,81,0.00,,---,0.08,VWS V14.01,2013-10-08 04:45:00,
2013-10-07 21:46:00,54.2,48.5,30.02,South,172,6.0,12.0,81,0.00,,---,0.08,VWS V14.01,2013-10-08 04:46:00,
2013-10-07 21:51:00,54.2,48.5,30.02,SE,145,5.0,8.0,81,0.00,,---,0.08,VWS V14.01,2013-10-08 04:51:00,
2013-10-07 21:56:00,54.2,48.5,30.01,SSW,212,5.0,8.0,81,0.00,,---,0.08,VWS V14.01,2013-10-08 04:56:00,
2013-10-07 22:00:00,54.1,48.4,30.02,South,187,7.0,16.0,81,0.00,,---,0.08,VWS V14.01,2013-10-08 05:00:00,
2013-10-07 22:01:00,54.1,48.4,30.02,SSE,155,13.0,16.0,81,0.00,,---,0.08,VWS V14.01,2013-10-08 05:01:00,
2013-10-07 22:06:00,54.0,48.3,30.02,South,180,1.0,12.0,81,0.00,,---,0.08,VWS V14.01,2013-10-08 05:06:00,
2013-10-07 22:11:00,53.9,48.2,30.02,SE,137,9.0,14.0,81,0.00,,---,0.08,VWS V14.01,2013-10-08 05:11:00,
2013-10-07 22:15:00,53.9,48.2,30.02,WSW,240,5.0,15.0,81,0.00,,---,0.08,VWS V14.01,2013-10-08 05:15:00,
2013-10-07 22:16:00,53.9,48.2,30.02,SSE,164,4.0,15.0,81,0.00,,---,0.08,VWS V14.01,2013-10-08 05:16:00,
2013-10-07 22:21:00,53.8,48.1,30.02,WSW,255,2.0,10.0,81,0.00,,---,0.08,VWS V14.01,2013-10-08 05:21:00,
2013-10-07 22:26:00,53.7,48.0,30.02,SSW,192,5.0,13.0,81,0.00,,---,0.08,VWS V14.01,2013-10-08 05:26:00,
2013-10-07 22:30:00,53.6,48.2,30.02,SW,219,1.0,13.0,82,0.00,,---,0.08,VWS V14.01,2013-10-08 05:30:00,
2013-10-07 22:31:00,53.6,48.2,30.02,SSW,207,4.0,13.0,82,0.00,,---,0.08,VWS V14.01,2013-10-08 05:31:00,
2013-10-07 22:36:00,53.5,48.2,30.02,South,190,3.0,11.0,82,0.00,,---,0.08,VWS V14.01,2013-10-08 05:36:00,
2013-10-07 22:41:00,53.5,48.5,30.02,SSE,159,1.0,13.0,83,0.00,,---,0.08,VWS V14.01,2013-10-08 05:41:00,
2013-10-07 22:45:00,53.5,48.5,30.02,South,184,1.0,13.0,83,0.00,,---,0.08,VWS V14.01,2013-10-08 05:45:00,
2013-10-07 22:46:00,53.5,48.5,30.02,SSW,196,3.0,13.0,83,0.00,,---,0.08,VWS V14.01,2013-10-08 05:46:00,
2013-10-07 22:51:00,53.6,48.6,30.02,South,181,1.0,12.0,83,0.00,,---,0.08,VWS V14.01,2013-10-08 05:51:00,
2013-10-07 22:56:00,53.6,48.6,30.02,SSE,161,6.0,12.0,83,0.00,,---,0.08,VWS V14.01,2013-10-08 05:56:00,
2013-10-07 23:00:00,53.7,48.7,30.02,NW,325,2.0,12.0,83,0.00,,---,0.08,VWS V14.01,2013-10-08 06:00:00,
2013-10-07 23:01:00,53.7,48.7,30.02,SSW,212,2.0,12.0,83,0.00,,---,0.08,VWS V14.01,2013-10-08 06:01:00,
2013-10-07 23:06:00,53.5,48.2,30.02,SSW,210,8.0,14.0,82,0.00,,---,0.08,VWS V14.01,2013-10-08 06:06:00,
2013-10-07 23:11:00,53.5,48.5,30.02,South,174,4.0,14.0,83,0.00,,---,0.08,VWS V14.01,2013-10-08 06:11:00,
2013-10-07 23:15:00,53.4,48.4,30.02,South,180,3.0,14.0,83,0.00,,---,0.08,VWS V14.01,2013-10-08 06:15:00,
2013-10-07 23:16:00,53.4,48.4,30.02,SSW,194,4.0,14.0,83,0.00,,---,0.08,VWS V14.01,2013-10-08 06:16:00,
2013-10-07 23:21:00,53.5,48.5,30.02,SSE,167,7.0,14.0,83,0.00,,---,0.08,VWS V14.01,2013-10-08 06:21:00,
2013-10-07 23:26:00,53.4,48.4,30.02,NNW,342,1.0,14.0,83,0.00,,---,0.08,VWS V14.01,2013-10-08 06:26:00,
2013-10-07 23:30:00,53.5,48.5,30.02,South,184,1.0,14.0,83,0.00,,---,0.08,VWS V14.01,2013-10-08 06:30:00,
2013-10-07 23:31:00,53.5,48.5,30.02,SSW,213,6.0,14.0,83,0.00,,---,0.08,VWS V14.01,2013-10-08 06:31:00,
2013-10-07 23:36:00,53.4,48.4,30.02,SSW,199,3.0,9.0,83,0.00,,---,0.08,VWS V14.01,2013-10-08 06:36:00,
2013-10-07 23:41:00,53.5,48.5,30.02,SW,219,3.0,10.0,83,0.00,,---,0.08,VWS V14.01,2013-10-08 06:41:00,
2013-10-07 23:45:00,53.3,48.3,30.02,South,180,7.0,14.0,83,0.00,,---,0.08,VWS V14.01,2013-10-08 06:45:00,
2013-10-07 23:46:00,53.4,48.4,30.02,South,171,6.0,14.0,83,0.00,,---,0.08,VWS V14.01,2013-10-08 06:46:00,
2013-10-07 23:51:00,53.3,48.3,30.02,SW,226,3.0,12.0,83,0.00,,---,0.08,VWS V14.01,2013-10-08 06:51:00,
2013-10-07 23:56:00,53.3,48.3,30.02,SSW,202,3.0,12.0,83,0.00,,---,0.08,VWS V14.01,2013-10-08 06:56:00,